Flag for South Africa Weather past 2 weeks in Vereeniging, South Africa

Now
43 °F

Quite cool.


Feels Like: N/A
Forecast: 35 / 75 °F
Wind: N/A

Location: Vereeniging

Current Time: May 31, 2015 at 1:29:44 AM

Latest Report: May 31, 2015 at 1:00 AM


Visibility: N/A

Pressure: 30.27 "Hg

Humidity: 61%

Dew point: 30 °F

Location of VereenigingLocation

Historic Weather in Vereeniging — Graph

°F

Vereeniging temperature yesterday

Maximum temperature yesterday: 75 °F (at 3:00 PM)
Minimum temperature yesterday: 39 °F (at 4:00 AM)
Average temperature yesterday: 56 °F

Past Weeks' High & Low Weather Summary

 TemperatureHumidityPressure
High81 °F (May 16, 3:00 PM)93% (May 19, 6:00 AM)30.54 "Hg (May 19, 6:00 AM)
Low36 °F (May 22, 6:00 AM)14% (May 16, 3:00 PM)30.18 "Hg (May 25, 2:00 PM)
Average57 °F49%30.33 "Hg
* Reported Midnight between May 15 and May 16 — Midnight between May 30 and May 31, Vereeniging, Weather by CustomWeather, © 2015

Note: Actual official high and low records may vary slightly from our data, if they occured in-between our weather recording intervals... More about our weather records

Advertising

Vereeniging weather history for previous 24 hours

 ConditionsComfort  
Time TempWeatherWind HumidityBarometerVisibility
12:00 AM
Sun, May 31
43 °FQuite cool.N/A61%30.27 "HgN/A
11:00 PM
Sat, May 30
45 °FQuite cool.N/A61%30.27 "HgN/A
10:00 PM46 °FCool.N/A57%30.27 "HgN/A
9:00 PM48 °FCool.N/A50%30.27 "HgN/A
8:00 PM52 °FCool.N/A44%30.27 "HgN/A
7:00 PM55 °FRefreshingly cool.N/A36%30.24 "HgN/A
6:00 PM63 °FMild.N/A27%30.24 "HgN/A
5:00 PM70 °FMild.N/A18%30.21 "HgN/A
4:00 PM75 °FMild.N/A14%30.21 "HgN/A
3:00 PM75 °FMild.N/A14%30.21 "HgN/A
2:00 PM73 °FMild.N/A15%30.21 "HgN/A
1:00 PM73 °FMild.N/A16%30.24 "HgN/A
12:00 PM72 °FMild.N/A16%30.27 "HgN/A
11:00 AM70 °FMild.N/A20%30.30 "HgN/A
10:00 AM68 °FMild.N/A26%30.30 "HgN/A
9:00 AM63 °FMild.N/A32%30.30 "HgN/A
8:00 AM48 °FCool.N/A54%30.30 "HgN/A
7:00 AM39 °FChilly.N/A70%30.27 "HgN/A
6:00 AM41 °FQuite cool.N/A66%30.27 "HgN/A
5:00 AM39 °FChilly.N/A70%30.27 "HgN/A
4:00 AM39 °FChilly.N/A75%30.27 "HgN/A
3:00 AM41 °FQuite cool.N/A66%30.27 "HgN/A
1:00 AM43 °FQuite cool.N/A66%30.27 "HgN/A
Weather by CustomWeather, © 2015

See weather overviewHow to use our weather pages